Wind_Speed
23 24 25 26 27 29 29 30 29 30 35 37 39 38 35 32 30 28 25 24 19 20 21 21 24 26 25 22 22 23 26 28 28
16 16 15 13 15 17 20 18 22 26 33 38 39 38 37 35 32 30 27 25 24 21 23 22 23 26 27 23 22 23 26 29 28
22 18 17 16 16 17 17 20 21 23 26 30 36 37 36 35 34 33 29 27 27 26 24 24 26 27 27 26 24 25 27 29 28
23 23 22 21 17 18 19 19 19 23 25 19 27 32 33 35 34 34 32 29 27 27 27 27 28 28 28 28 27 29 30 32 30
28 27 25 24 23 22 22 24 24 25 23 21 24 28 31 32 33 34 33 31 29 29 29 28 29 29 30 30 32 32 34 33 33
30 29 29 27 26 26 27 27 27 27 21 20 21 26 30 30 31 31 32 32 31 30 31 30 31 32 32 34 35 35 36 35 35
31 31 30 31 30 29 30 28 28 26 21 21 20 21 26 30 31 33 34 34 35 33 33 32 33 34 37 38 36 37 36 34 32
34 33 33 33 33 33 32 30 29 26 25 23 23 24 23 25 27 27 30 33 36 37 36 35 35 35 35 36 34 30 29 30 31
37 36 36 36 36 37 36 35 30 30 29 29 28 27 27 30 30 28 28 28 30 31 33 34 34 34 33 33 33 28 29 29 29
42 41 40 39 38 40 40 38 36 33 32 32 32 32 31 31 33 35 31 30 29 29 30 32 31 30 30 31 32 32 32 32 32
48 47 46 44 42 44 43 43 42 41 38 36 36 35 37 34 34 34 36 36 34 33 32 34 34 32 33 34 36 39 37 35 34
54 52 52 52 50 48 47 46 46 46 45 44 42 40 40 40 40 37 37 38 36 36 36 36 38 40 42 44 43 44 40 36 34
61 59 58 59 58 57 54 54 52 51 49 49 51 47 44 44 44 41 41 40 39 41 40 40 38 39 38 39 41 45 40 35 35
66 66 66 66 65 64 61 60 58 57 56 56 56 53 50 47 47 47 45 43 41 40 40 40 40 42 42 41 36 34 34 33 34
73 73 72 74 73 71 69 67 66 64 59 61 60 60 57 52 49 51 50 46 46 46 41 38 40 41 39 37 36 35 34 34 32
82 81 80 82 81 79 77 76 74 71 70 71 69 65 62 58 53 52 55 53 51 49 47 42 40 42 42 40 39 36 36 36 31
89 88 87 88 88 87 86 86 84 80 79 77 79 75 72 68 64 61 58 58 57 52 52 51 48 48 48 46 43 42 40 38 36
99 98 97 97 97 96 95 94 92 91 90 87 87 83 78 79 74 71 68 67 66 63 61 61 59 57 54 52 49 47 49 46 43
105 104 106 108 106 106 106 106 103 101 96 99 96 94 90 88 84 82 78 75 73 73 70 69 66 62 59 58 55 54 54 53 51
114 113 114 116 117 116 115 114 114 112 110 107 105 105 100 99 92 89 88 84 82 81 79 78 71 68 63 61 61 59 55 55 53
Wind_Direction
270 269 270 267 265 260 257 262 270 267 261 259 262 263 262 263 267 270 276 280 277 283 274 294 300 313 317 317 323 330 335 339 345
264 270 274 276 272 267 266 265 275 279 270 255 255 261 263 261 260 264 268 274 274 277 278 283 297 300 308 309 314 323 328 331 336
267 264 265 269 260 267 268 279 285 302 293 258 247 253 258 261 263 262 262 263 268 272 277 281 288 292 294 299 306 316 319 322 326
273 273 271 273 266 273 279 282 289 305 311 279 251 252 255 260 262 262 262 260 261 267 268 274 279 282 287 294 299 308 312 316 321
262 269 272 274 276 277 274 285 293 299 299 292 260 254 252 258 264 263 259 259 261 265 267 267 273 278 283 290 297 302 306 310 314
260 261 267 268 266 271 277 284 287 296 285 280 273 262 256 255 263 265 262 262 261 266 268 270 273 277 282 288 293 299 302 302 305
257 259 263 268 270 268 277 282 284 288 282 272 267 268 263 260 263 267 266 264 263 262 265 271 274 275 279 285 290 293 296 299 298
259 260 261 265 268 272 273 273 278 275 276 275 272 266 260 260 262 265 266 267 265 263 262 266 272 274 276 281 282 287 293 298 296
258 260 262 264 267 268 268 270 266 269 270 273 275 271 270 265 262 258 266 271 265 259 261 265 271 271 272 271 274 277 289 296 294
256 256 260 261 264 267 269 268 266 264 265 265 268 271 270 269 270 266 260 259 266 263 260 264 266 266 268 272 273 281 285 290 290
255 255 256 257 259 265 266 266 265 262 261 262 265 265 266 266 267 267 264 265 269 261 263 265 266 268 268 271 274 278 286 290 288
256 256 258 258 259 258 259 262 265 263 261 259 260 262 265 265 264 261 265 268 269 267 267 266 263 268 273 273 275 277 280 283 287
257 258 259 259 260 260 259 260 259 259 259 259 260 259 261 265 266 266 268 269 271 265 266 270 276 276 277 276 279 276 276 280 284
258 258 259 259 259 260 259 258 258 258 258 259 258 257 257 258 262 266 267 270 269 268 271 271 276 276 276 277 279 278 281 283 288
260 260 260 261 260 259 258 257 256 254 255 258 257 258 255 253 256 261 263 266 268 269 269 271 276 279 280 274 279 282 282 283 292
260 261 261 262 263 262 261 259 257 256 253 253 254 253 255 256 254 255 259 260 261 266 267 267 267 273 277 278 278 277 277 282 288
264 263 262 262 262 263 263 261 260 258 256 254 253 254 255 256 255 254 255 259 260 261 260 266 266 267 271 274 277 276 276 279 283
265 266 266 266 266 266 265 264 261 258 256 256 256 255 255 254 255 255 255 255 257 259 260 261 263 266 268 270 274 275 277 280 281
267 266 267 268 267 266 265 265 264 262 258 257 256 255 254 253 252 255 254 255 257 258 259 259 261 262 265 268 272 275 277 280 280
268 267 266 265 266 266 265 265 265 264 263 260 258 257 255 254 253 253 253 254 254 256 257 258 259 261 262 265 269 271 272 276 277
Height
10860 10860 10860 10860 10859 10860 10861 10861 10863 10863 10863 10864 10864 10865 10865 10864 10865 10865 10866 10865 10865 10864 10863 10861 10860 10858 10856 10854 10852 10850 10847 10845 10843
10856 10856 10856 10857 10857 10857 10857 10858 10858 10857 10854 10855 10857 10859 10860 10860 10860 10860 10861 10861 10860 10860 10859 10858 10857 10855 10853 10851 10848 10847 10844 10842 10840
10853 10853 10853 10854 10854 10854 10854 10854 10854 10852 10847 10846 10849 10852 10854 10855 10855 10855 10856 10856 10856 10855 10855 10854 10853 10851 10849 10847 10845 10843 10842 10840 10838
10849 10849 10849 10850 10851 10850 10850 10850 10849 10847 10845 10843 10845 10847 10848 10849 10850 10850 10851 10851 10851 10850 10850 10849 10848 10847 10845 10843 10842 10840 10838 10836 10834
10845 10844 10844 10844 10845 10845 10845 10844 10844 10843 10842 10841 10841 10842 10843 10844 10845 10845 10846 10846 10846 10846 10845 10845 10844 10843 10841 10840 10837 10836 10834 10832 10830
10839 10839 10839 10839 10839 10839 10839 10839 10837 10837 10837 10837 10837 10838 10838 10839 10840 10840 10841 10841 10841 10841 10840 10840 10839 10838 10837 10835 10833 10831 10830 10828 10826
10833 10833 10834 10833 10833 10834 10834 10833 10834 10833 10832 10832 10833 10833 10834 10834 10834 10835 10835 10835 10835 10835 10835 10835 10834 10832 10831 10829 10828 10826 10825 10823 10821
10827 10827 10827 10828 10828 10828 10828 10829 10829 10829 10828 10828 10828 10829 10830 10829 10829 10830 10829 10829 10829 10829 10829 10828 10828 10826 10824 10823 10822 10820 10818 10817 10815
10819 10820 10820 10820 10822 10822 10822 10823 10824 10824 10823 10823 10822 10823 10824 10824 10824 10824 10824 10823 10822 10822 10822 10822 10821 10820 10818 10816 10815 10814 10812 10811 10810
10810 10810 10812 10813 10814 10814 10815 10816 10817 10818 10817 10817 10817 10816 10817 10818 10817 10817 10818 10818 10817 10817 10817 10816 10816 10815 10813 10812 10811 10809 10808 10807 10805
10800 10800 10802 10803 10805 10805 10806 10807 10809 10810 10811 10810 10810 10810 10809 10810 10811 10810 10811 10812 10812 10811 10811 10810 10810 10809 10808 10806 10805 10804 10802 10801 10799
10790 10792 10793 10793 10795 10797 10798 10798 10799 10801 10801 10801 10802 10802 10801 10801 10802 10804 10803 10803 10804 10804 10804 10803 10803 10802 10801 10800 10798 10797 10796 10794 10793
10779 10781 10783 10783 10785 10786 10788 10788 10789 10789 10790 10790 10791 10793 10793 10792 10793 10795 10795 10795 10796 10796 10796 10796 10795 10794 10793 10792 10791 10790 10789 10787 10785
10767 10768 10768 10768 10771 10773 10775 10775 10777 10776 10778 10778 10779 10781 10784 10783 10783 10785 10785 10786 10786 10787 10788 10788 10788 10787 10785 10785 10784 10783 10781 10780 10778
10751 10753 10753 10751 10754 10758 10760 10761 10762 10763 10765 10764 10766 10767 10770 10772 10775 10773 10775 10776 10777 10777 10779 10780 10779 10779 10778 10777 10776 10775 10775 10773 10773
10733 10737 10738 10735 10737 10740 10742 10745 10748 10750 10749 10747 10749 10752 10754 10759 10764 10763 10761 10764 10764 10768 10769 10771 10771 10771 10770 10770 10769 10768 10767 10766 10766
10714 10717 10718 10718 10717 10719 10722 10724 10727 10732 10730 10732 10728 10736 10739 10745 10747 10749 10751 10748 10751 10755 10757 10760 10762 10762 10763 10762 10762 10761 10759 10759 10759
10688 10690 10692 10694 10696 10698 10699 10701 10703 10708 10708 10710 10708 10717 10725 10724 10729 10733 10736 10736 10736 10739 10743 10746 10748 10750 10753 10753 10753 10752 10750 10750 10750
10665 10667 10665 10663 10665 10670 10670 10671 10676 10676 10687 10684 10690 10693 10700 10704 10711 10713 10718 10719 10722 10721 10724 10729 10733 10736 10740 10741 10742 10741 10739 10739 10739
10632 10634 10636 10636 10634 10636 10640 10642 10644 10647 10652 10658 10662 10663 10674 10680 10692 10697 10698 10702 10705 10704 10704 10708 10717 10721 10725 10728 10727 10727 10728 10727 10728